VLG1007 LEMD-LEBL

Flight info

Callsign VLG1007
Flight time 0h 47m
Altitude 30000
Route PINAR N870 PONEN T600 CASPE
Aircraft A320/M-SDE3FGHIRWY/LB1

Departure

Time 2026-05-06 13:32
Airport Adolfo Suárez Madrid–Barajas Airport (LEMD)

Arrival

Time 2026-05-06 14:19
Airport Josep Tarradellas Barcelona-El Prat Airport (LEBL)
Time Latitude Longitude Altitude Speed Heading
2026-05-06 13:01 40.49043 -3.58966 2022 ft 0 kts 271°
2026-05-06 13:18 40.49043 -3.58955 2029 ft 3 kts 269°
2026-05-06 13:19 40.49044 -3.58929 2022 ft 3 kts 259°
2026-05-06 13:19 40.49049 -3.58903 2022 ft 3 kts 241°
2026-05-06 13:19 40.49060 -3.58884 2033 ft 3 kts 205°
2026-05-06 13:19 40.49071 -3.58880 2030 ft 0 kts 179°
2026-05-06 13:23 40.49020 -3.58879 2022 ft 14 kts 179°
2026-05-06 13:24 40.48898 -3.58879 2022 ft 20 kts 179°
2026-05-06 13:24 40.48762 -3.58846 2022 ft 12 kts 126°
2026-05-06 13:24 40.48761 -3.58740 2022 ft 15 kts 91°
2026-05-06 13:24 40.48759 -3.58569 2021 ft 23 kts 88°
2026-05-06 13:25 40.48759 -3.58311 2012 ft 33 kts 91°
2026-05-06 13:25 40.48761 -3.58029 2002 ft 16 kts 89°
2026-05-06 13:25 40.48767 -3.57961 2000 ft 6 kts 65°
2026-05-06 13:25 40.48806 -3.57934 1999 ft 6 kts 11°
2026-05-06 13:26 40.48854 -3.57886 1997 ft 14 kts 68°
2026-05-06 13:26 40.48858 -3.57715 1992 ft 23 kts 89°
2026-05-06 13:26 40.48858 -3.57470 1988 ft 31 kts 90°
2026-05-06 13:26 40.48860 -3.57179 1982 ft 33 kts 90°
2026-05-06 13:27 40.48859 -3.56872 1977 ft 36 kts 90°
2026-05-06 13:27 40.48861 -3.56561 1970 ft 31 kts 89°
2026-05-06 13:27 40.48863 -3.56395 1966 ft 11 kts 89°
2026-05-06 13:27 40.48869 -3.56289 1963 ft 12 kts 71°
2026-05-06 13:28 40.48978 -3.56245 1962 ft 23 kts
2026-05-06 13:28 40.49151 -3.56244 1965 ft 26 kts 360°
2026-05-06 13:28 40.49338 -3.56245 1962 ft 28 kts 359°
2026-05-06 13:28 40.49535 -3.56247 1961 ft 30 kts 360°
2026-05-06 13:29 40.49734 -3.56249 1961 ft 29 kts 359°
2026-05-06 13:29 40.49907 -3.56246 1966 ft 18 kts 14°
2026-05-06 13:29 40.49939 -3.56107 1958 ft 14 kts 88°
2026-05-06 13:29 40.49960 -3.55998 1959 ft 11 kts 54°
2026-05-06 13:30 40.50009 -3.55939 1959 ft 9 kts 36°
2026-05-06 13:30 40.50056 -3.55918 1960 ft 0 kts 359°
2026-05-06 13:31 40.50061 -3.55918 1960 ft 5 kts 359°
2026-05-06 13:31 40.50315 -3.55922 1961 ft 75 kts 360°
2026-05-06 13:32 40.51072 -3.55929 1958 ft 140 kts 359°
2026-05-06 13:32 40.52207 -3.55955 2165 ft 169 kts 358°
2026-05-06 13:32 40.53352 -3.55959 2981 ft 162 kts
2026-05-06 13:32 40.54503 -3.55786 3535 ft 176 kts 15°
2026-05-06 13:33 40.55751 -3.55283 3873 ft 199 kts 17°
2026-05-06 13:33 40.57147 -3.54720 4221 ft 221 kts 17°
2026-05-06 13:33 40.58653 -3.54112 4793 ft 229 kts 19°
2026-05-06 13:33 40.60051 -3.53091 5459 ft 235 kts 39°
2026-05-06 13:34 40.61361 -3.51652 5990 ft 251 kts 40°
2026-05-06 13:34 40.62724 -3.50123 6644 ft 264 kts 40°
2026-05-06 13:34 40.64130 -3.48539 7481 ft 268 kts 40°
2026-05-06 13:34 40.65561 -3.46929 8383 ft 272 kts 40°
2026-05-06 13:35 40.67008 -3.45301 9289 ft 275 kts 40°
2026-05-06 13:35 40.68467 -3.43660 10163 ft 278 kts 40°
2026-05-06 13:35 40.69928 -3.42019 10951 ft 281 kts 39°
2026-05-06 13:35 40.71430 -3.40339 11748 ft 285 kts 40°
2026-05-06 13:36 40.72952 -3.38637 12539 ft 289 kts 40°
2026-05-06 13:36 40.74490 -3.36916 13326 ft 293 kts 40°
2026-05-06 13:36 40.76057 -3.35164 14067 ft 297 kts 40°
2026-05-06 13:36 40.77640 -3.33392 14742 ft 301 kts 40°
2026-05-06 13:37 40.79244 -3.31592 15441 ft 304 kts 39°
2026-05-06 13:37 40.80862 -3.29772 16136 ft 307 kts 39°
2026-05-06 13:37 40.82499 -3.27927 16831 ft 311 kts 39°
2026-05-06 13:37 40.84093 -3.25974 17505 ft 316 kts 47°
2026-05-06 13:38 40.85363 -3.23582 18149 ft 324 kts 60°
2026-05-06 13:38 40.86216 -3.20728 18303 ft 346 kts 75°
2026-05-06 13:38 40.86827 -3.17556 18436 ft 365 kts 75°
2026-05-06 13:38 40.87469 -3.14222 18570 ft 383 kts 75°
2026-05-06 13:39 40.88141 -3.10760 18970 ft 392 kts 75°
2026-05-06 13:39 40.88824 -3.07255 19474 ft 397 kts 75°
2026-05-06 13:39 40.89524 -3.03690 19985 ft 403 kts 74°
2026-05-06 13:39 40.90235 -3.00087 20484 ft 408 kts 74°
2026-05-06 13:40 40.90956 -2.96427 20994 ft 414 kts 74°
2026-05-06 13:40 40.91685 -2.92720 21511 ft 419 kts 74°
2026-05-06 13:40 40.92410 -2.89019 22014 ft 424 kts 74°
2026-05-06 13:40 40.93152 -2.85225 22506 ft 429 kts 75°
2026-05-06 13:41 40.93903 -2.81361 23005 ft 434 kts 75°
2026-05-06 13:41 40.94655 -2.77468 23476 ft 439 kts 75°
2026-05-06 13:41 40.95414 -2.73528 23875 ft 443 kts 75°
2026-05-06 13:41 40.96177 -2.69565 24297 ft 446 kts 75°
2026-05-06 13:42 40.96943 -2.65573 24706 ft 450 kts 75°
2026-05-06 13:42 40.97706 -2.61593 25079 ft 454 kts 75°
2026-05-06 13:42 40.98488 -2.57537 25452 ft 457 kts 75°
2026-05-06 13:42 40.99276 -2.53446 25845 ft 460 kts 75°
2026-05-06 13:43 41.00063 -2.49337 26215 ft 462 kts 75°
2026-05-06 13:43 41.00852 -2.45195 26596 ft 465 kts 75°
2026-05-06 13:43 41.01641 -2.41030 26972 ft 468 kts 75°
2026-05-06 13:43 41.02434 -2.36847 27335 ft 470 kts 75°
2026-05-06 13:44 41.03235 -2.32630 27700 ft 473 kts 75°
2026-05-06 13:44 41.04039 -2.28384 28053 ft 476 kts 75°
2026-05-06 13:44 41.04846 -2.24118 28351 ft 480 kts 75°
2026-05-06 13:44 41.05658 -2.19810 28667 ft 483 kts 75°
2026-05-06 13:45 41.06471 -2.15480 28987 ft 485 kts 76°
2026-05-06 13:45 41.08106 -2.06766 29607 ft 490 kts 76°
2026-05-06 13:45 41.08928 -2.02375 29895 ft 492 kts 76°
2026-05-06 13:46 41.10542 -1.93691 29969 ft 477 kts 76°
2026-05-06 13:46 41.12118 -1.85172 29976 ft 475 kts 76°
2026-05-06 13:47 41.13679 -1.76724 29971 ft 474 kts 76°
2026-05-06 13:47 41.15237 -1.68219 29970 ft 474 kts 76°
2026-05-06 13:48 41.16781 -1.59702 29972 ft 474 kts 76°
2026-05-06 13:48 41.18324 -1.51205 29973 ft 474 kts 76°
2026-05-06 13:49 41.19875 -1.42677 29962 ft 474 kts 76°
2026-05-06 13:49 41.21419 -1.34158 29963 ft 475 kts 76°
2026-05-06 13:50 41.22946 -1.25620 29961 ft 475 kts 76°
2026-05-06 13:50 41.24473 -1.17079 29960 ft 475 kts 76°
2026-05-06 13:51 41.25993 -1.08537 29957 ft 476 kts 77°
2026-05-06 13:51 41.27507 -0.99968 29953 ft 476 kts 77°
2026-05-06 13:52 41.29022 -0.91389 29956 ft 476 kts 77°
2026-05-06 13:52 41.30516 -0.82873 29956 ft 477 kts 77°
2026-05-06 13:53 41.32016 -0.74281 29948 ft 477 kts 77°
2026-05-06 13:53 41.33507 -0.65678 29946 ft 477 kts 77°
2026-05-06 13:54 41.34851 -0.57015 29982 ft 477 kts 85°
2026-05-06 13:54 41.34668 -0.48229 29940 ft 473 kts 101°
2026-05-06 13:55 41.33686 -0.39564 29930 ft 474 kts 101°
2026-05-06 13:55 41.32711 -0.30894 29940 ft 474 kts 101°
2026-05-06 13:56 41.31740 -0.22268 29731 ft 475 kts 101°
2026-05-06 13:56 41.31408 -0.19338 29543 ft 475 kts 101°
2026-05-06 13:56 41.30913 -0.14988 29257 ft 475 kts 101°
2026-05-06 13:57 41.30415 -0.10646 28979 ft 475 kts 101°
2026-05-06 13:57 41.29917 -0.06314 28702 ft 473 kts 101°
2026-05-06 13:57 41.29418 -0.01989 28430 ft 472 kts 101°
2026-05-06 13:57 41.28759 0.03703 28054 ft 469 kts 102°
2026-05-06 13:58 41.28420 0.06599 27871 ft 468 kts 102°
2026-05-06 13:58 41.27917 0.10872 27604 ft 467 kts 102°
2026-05-06 13:58 41.27446 0.15124 27339 ft 466 kts 98°
2026-05-06 13:58 41.27351 0.19433 27073 ft 466 kts 88°
2026-05-06 13:59 41.27751 0.23692 26813 ft 465 kts 78°
2026-05-06 13:59 41.28588 0.27827 26558 ft 463 kts 73°
2026-05-06 13:59 41.29498 0.31929 26292 ft 462 kts 73°
2026-05-06 13:59 41.30395 0.36020 26044 ft 460 kts 73°
2026-05-06 14:00 41.31274 0.40056 25792 ft 459 kts 74°
2026-05-06 14:00 41.32155 0.44126 25544 ft 458 kts 74°
2026-05-06 14:00 41.33046 0.48254 25329 ft 457 kts 74°
2026-05-06 14:00 41.33914 0.52267 24978 ft 455 kts 74°
2026-05-06 14:01 41.34787 0.56304 24636 ft 453 kts 74°
2026-05-06 14:01 41.35658 0.60319 24237 ft 450 kts 74°
2026-05-06 14:01 41.36524 0.64311 23865 ft 448 kts 74°
2026-05-06 14:01 41.37384 0.68284 23501 ft 446 kts 74°
2026-05-06 14:02 41.38237 0.72252 23097 ft 443 kts 74°
2026-05-06 14:02 41.39079 0.76181 22749 ft 439 kts 74°
2026-05-06 14:02 41.39911 0.80068 22388 ft 435 kts 74°
2026-05-06 14:02 41.40300 0.81887 22226 ft 433 kts 74°
2026-05-06 14:03 41.40778 0.84124 22021 ft 430 kts 74°
2026-05-06 14:03 41.41593 0.87938 21665 ft 426 kts 74°
2026-05-06 14:03 41.42402 0.91719 21327 ft 422 kts 74°
2026-05-06 14:03 41.43203 0.95462 20982 ft 418 kts 74°
2026-05-06 14:04 41.43993 0.99182 20642 ft 414 kts 74°
2026-05-06 14:04 41.44768 1.02853 20310 ft 409 kts 74°
2026-05-06 14:04 41.45527 1.06438 19986 ft 405 kts 73°
2026-05-06 14:04 41.46292 1.10042 19592 ft 401 kts 73°
2026-05-06 14:05 41.47043 1.13599 19169 ft 397 kts 73°
2026-05-06 14:05 41.47785 1.17127 18764 ft 393 kts 74°
2026-05-06 14:05 41.48518 1.20620 18364 ft 389 kts 74°
2026-05-06 14:05 41.49243 1.24074 17934 ft 384 kts 74°
2026-05-06 14:06 41.49962 1.27497 17538 ft 381 kts 74°
2026-05-06 14:06 41.50671 1.30887 17134 ft 378 kts 74°
2026-05-06 14:06 41.51375 1.34257 16750 ft 375 kts 74°
2026-05-06 14:06 41.52071 1.37594 16365 ft 373 kts 73°
2026-05-06 14:07 41.52763 1.40918 15985 ft 370 kts 73°
2026-05-06 14:07 41.53447 1.44214 15607 ft 368 kts 73°
2026-05-06 14:07 41.54128 1.47500 15224 ft 366 kts 73°
2026-05-06 14:07 41.54634 1.50827 14847 ft 364 kts 83°
2026-05-06 14:08 41.54737 1.54209 14284 ft 366 kts 89°
2026-05-06 14:08 41.54763 1.57599 13819 ft 364 kts 89°
2026-05-06 14:08 41.54782 1.60961 13410 ft 360 kts 89°
2026-05-06 14:08 41.54800 1.64276 12929 ft 357 kts 89°
2026-05-06 14:09 41.54820 1.67551 12416 ft 355 kts 89°
2026-05-06 14:09 41.54841 1.70834 11944 ft 353 kts 89°
2026-05-06 14:09 41.54862 1.74092 11277 ft 346 kts 89°
2026-05-06 14:09 41.54881 1.77282 10540 ft 342 kts 89°
2026-05-06 14:10 41.54898 1.80414 10112 ft 329 kts 89°
2026-05-06 14:10 41.54912 1.83362 9799 ft 311 kts 89°
2026-05-06 14:10 41.54922 1.86205 9651 ft 305 kts 89°
2026-05-06 14:10 41.54903 1.89037 9521 ft 304 kts 95°
2026-05-06 14:11 41.54578 1.91833 9382 ft 304 kts 100°
2026-05-06 14:11 41.54191 1.94617 8950 ft 305 kts 103°
2026-05-06 14:11 41.53403 1.97215 8492 ft 304 kts 120°
2026-05-06 14:11 41.52380 1.99645 8265 ft 293 kts 120°
2026-05-06 14:12 41.51380 2.01971 7714 ft 286 kts 121°
2026-05-06 14:12 41.50406 2.04215 7173 ft 280 kts 121°
2026-05-06 14:12 41.49439 2.06444 6632 ft 275 kts 121°
2026-05-06 14:12 41.48487 2.08636 6077 ft 270 kts 121°
2026-05-06 14:13 41.47553 2.10787 5518 ft 266 kts 121°
2026-05-06 14:13 41.46622 2.12929 4828 ft 267 kts 121°
2026-05-06 14:13 41.45689 2.15073 4109 ft 267 kts 121°
2026-05-06 14:13 41.44761 2.17213 3407 ft 266 kts 121°
2026-05-06 14:14 41.43834 2.19352 2700 ft 265 kts 122°
2026-05-06 14:14 41.42924 2.21455 2309 ft 255 kts 123°
2026-05-06 14:14 41.42086 2.23401 2272 ft 232 kts 123°
2026-05-06 14:14 41.41289 2.25244 2281 ft 227 kts 123°
2026-05-06 14:15 41.40521 2.27011 2277 ft 211 kts 124°
2026-05-06 14:15 41.39603 2.28370 2270 ft 189 kts 153°
2026-05-06 14:15 41.38377 2.28842 2286 ft 185 kts 182°
2026-05-06 14:15 41.37180 2.28417 2285 ft 181 kts 212°
2026-05-06 14:16 41.36320 2.27234 2287 ft 180 kts 240°
2026-05-06 14:16 41.35797 2.25725 2287 ft 176 kts 242°
2026-05-06 14:16 41.35294 2.24235 2270 ft 177 kts 243°
2026-05-06 14:16 41.34784 2.22730 2028 ft 179 kts 242°
2026-05-06 14:17 41.34279 2.21245 1800 ft 179 kts 242°
2026-05-06 14:17 41.33759 2.19719 1551 ft 178 kts 243°
2026-05-06 14:17 41.33250 2.18224 1321 ft 177 kts 243°
2026-05-06 14:17 41.32751 2.16760 1079 ft 167 kts 244°
2026-05-06 14:18 41.32289 2.15403 861 ft 152 kts 245°
2026-05-06 14:18 41.31880 2.14206 683 ft 138 kts 243°
2026-05-06 14:18 41.31489 2.13060 491 ft 135 kts 242°
2026-05-06 14:18 41.31112 2.11943 357 ft 131 kts 243°
2026-05-06 14:19 41.30740 2.10836 169 ft 131 kts 242°
2026-05-06 14:19 41.30363 2.09734 41 ft 127 kts 244°
2026-05-06 14:19 41.30035 2.08816 20 ft 87 kts 244°
2026-05-06 14:19 41.29865 2.08368 24 ft 25 kts 237°
2026-05-06 14:20 41.29754 2.08237 18 ft 20 kts 218°
2026-05-06 14:20 41.29646 2.08211 19 ft 19 kts 158°
2026-05-06 14:20 41.29517 2.08288 18 ft 21 kts 155°
2026-05-06 14:20 41.29371 2.08374 19 ft 24 kts 156°
2026-05-06 14:21 41.29227 2.08451 21 ft 17 kts 180°
2026-05-06 14:21 41.29188 2.08400 20 ft 4 kts 255°
2026-05-06 14:21 41.29174 2.08347 23 ft 9 kts 246°
2026-05-06 14:21 41.29166 2.08317 19 ft 2 kts 250°
2026-05-06 14:22 41.29164 2.08309 19 ft 0 kts 250°